Location: Charlotte
(35.2269°N, 80.8433°W)
Time: 04:27:15
(UTC-04:00)

ISS - Visible Passes

Search period start: 05 August 2015 00:00
Search period end: 15 August 2015 00:00
Orbit: 401 x 403 km, 51.6° (Epoch: 04 August)

Date Brightness Start Highest point End Pass type
(mag) Time Alt. Az. Time Alt. Az. Time Alt. Az.
06 Aug -0.1 20:57:45 10° NW 20:59:07 12° NNW 21:00:25 10° N visible
13 Aug -0.3 22:50:38 10° NNW 22:51:25 14° N 22:51:25 14° N visible
14 Aug -0.8 21:58:12 10° N 21:59:46 13° NNE 22:00:09 13° NNE visible
